Pratt, KS

4:46 AM CST on February 09, 2016 (GMT -0600)
Pratt Industrial

Weather History for KPTT - December, 2013

Change the Weather History Date:

Saturday, December 14, 2013

  Actual Average (KP28) Record (KP28)
Temperature  
Mean Temperature 32 °F 34 °F  
Max Temperature 44 °F 46 °F 75 °F (1933)
Min Temperature 21 °F 23 °F -6 °F (1958)
Degree Days  
Heating Degree Days 32 30  
Month to date heating degree days 402  
Since 1 July heating degree days 1260  
Cooling Degree Days 0 0  
Month to date cooling degree days 0  
Year to date cooling degree days 1770  
Moisture  
Dew Point 22 °F    
Average Humidity 75    
Maximum Humidity 93    
Minimum Humidity 49    
Precipitation  
Precipitation 0.00 in 0.03 in 1.28 in (1984)
Month to date precipitation 0.42  
Year to date precipitation 26.64  
Snow  
Snow 0.00 in 0.10 in - ()
Month to date snowfall 1.3  
Since 1 July snowfall 1.5  
Snow Depth -    
Sea Level Pressure  
Sea Level Pressure 30.17 in    
Wind  
Wind Speed 18 mph (NNW)    
Max Wind Speed 28 mph    
Max Gust Speed 36 mph    
Visibility 8 miles    
Events      
T = Trace of Precipitation, MM = Missing Value Source: NWS Daily Summary

Daily Weather History Graph

Daily Weather History Graph

Search for Another Location

Airport or City:

Trip Planner

Search our weather history database for the weather conditions in past years. The results will help you decide how hot, cold, wet, or windy it might be!

Date:

Astronomy

Dec. 14, 2013 Rise Set
Actual Time 7:42 AM CST 5:17 PM CST
Civil Twilight 7:13 AM CST 5:46 PM CST
Nautical Twilight 6:40 AM CST 6:19 PM CST
Astronomical Twilight 6:08 AM CST 6:51 PM CST
Moon 3:38 PM CST (12/14) 5:06 AM CST (12/14)
Length of Visible Light 10h 33m
Length of Day
9h 34m
Waxing Gibbous, 94% of the Moon is Illuminated
Dec 14
Waxing Gibbous
Dec 17
Full
Dec 25
Last Quarter
Jan 1
New
Jan 7
First Quarter

Hourly Weather History & Observations

Time (CST) Temp. Windchill Dew Point Humidity Pressure Visibility Wind Dir Wind Speed Gust Speed Precip Events Conditions
12:15 AM 28.4 °F 15.8 °F 26.6 °F 93% 29.96 in 5.0 mi North 18.4 mph 24.2 mph N/A   Overcast
12:35 AM 28.4 °F 14.7 °F 26.6 °F 93% 29.98 in 5.0 mi North 21.9 mph 27.6 mph N/A   Overcast
12:55 AM 28.4 °F 14.1 °F 24.8 °F 86% 29.99 in 5.0 mi North 24.2 mph - N/A   Overcast
1:15 AM 26.6 °F 11.7 °F 23.0 °F 86% 30.00 in 4.0 mi North 24.2 mph - N/A   Overcast
1:35 AM 26.6 °F 12.0 °F 23.0 °F 86% 30.00 in 5.0 mi North 23.0 mph 31.1 mph N/A   Overcast
1:55 AM 26.6 °F 12.0 °F 23.0 °F 86% 30.02 in 5.0 mi North 23.0 mph - N/A   Overcast
2:15 AM 26.6 °F 12.0 °F 23.0 °F 86% 30.02 in 5.0 mi North 23.0 mph 31.1 mph N/A   Overcast
2:35 AM 26.6 °F 11.1 °F 23.0 °F 86% 30.04 in 5.0 mi North 26.5 mph - N/A   Overcast
2:55 AM 26.6 °F 13.1 °F 23.0 °F 86% 30.05 in 5.0 mi North 19.6 mph - N/A   Overcast
3:15 AM 26.6 °F 12.4 °F 23.0 °F 86% 30.07 in 5.0 mi North 21.9 mph 26.5 mph N/A   Overcast
3:35 AM 26.6 °F 11.7 °F 23.0 °F 86% 30.07 in 5.0 mi North 24.2 mph 29.9 mph N/A   Overcast
3:55 AM 26.6 °F 11.4 °F 23.0 °F 86% 30.07 in 5.0 mi North 25.3 mph 31.1 mph N/A   Overcast
4:15 AM 24.8 °F 9.3 °F 21.2 °F 86% 30.07 in 5.0 mi North 24.2 mph 33.4 mph N/A   Overcast
4:35 AM 24.8 °F 8.4 °F 21.2 °F 86% - 5.0 mi North 27.6 mph 35.7 mph N/A   Overcast
4:55 AM 23.0 °F 6.9 °F 21.2 °F 93% 30.09 in 5.0 mi North 24.2 mph - N/A   Overcast
5:15 AM 23.0 °F 6.6 °F 19.4 °F 86% 30.11 in 5.0 mi North 25.3 mph 31.1 mph N/A   Overcast
5:35 AM 23.0 °F 8.7 °F 19.4 °F 86% 30.12 in 5.0 mi North 18.4 mph 24.2 mph N/A   Overcast
5:55 AM 21.2 °F 4.5 °F 19.4 °F 93% 30.12 in 5.0 mi North 24.2 mph 31.1 mph N/A   Overcast
6:15 AM 23.0 °F 7.2 °F 19.4 °F 86% 30.13 in 5.0 mi North 23.0 mph - N/A   Overcast
6:35 AM 23.0 °F 6.0 °F 19.4 °F 86% 30.14 in 5.0 mi North 27.6 mph 32.2 mph N/A   Overcast
6:55 AM 23.0 °F 6.6 °F 19.4 °F 86% 30.16 in 5.0 mi NNW 25.3 mph 29.9 mph N/A   Overcast
7:15 AM 23.0 °F 6.9 °F 19.4 °F 86% 30.17 in 5.0 mi North 24.2 mph 29.9 mph N/A   Overcast
7:35 AM 23.0 °F 6.9 °F 19.4 °F 86% 30.18 in 5.0 mi North 24.2 mph - N/A   Overcast
7:55 AM 23.0 °F 6.6 °F 19.4 °F 86% 30.18 in 7.0 mi North 25.3 mph - N/A   Overcast
8:15 AM 23.0 °F 6.0 °F 19.4 °F 86% 30.19 in 5.0 mi North 27.6 mph 32.2 mph N/A   Overcast
8:35 AM 23.0 °F 6.9 °F 19.4 °F 86% 30.19 in 5.0 mi NNW 24.2 mph 31.1 mph N/A   Overcast
8:55 AM 23.0 °F 7.6 °F 19.4 °F 86% 30.20 in 5.0 mi North 21.9 mph 27.6 mph N/A   Haze
9:15 AM 23.0 °F 6.9 °F 19.4 °F 86% 30.21 in 5.0 mi North 24.2 mph - N/A   Haze
9:35 AM 26.6 °F 12.4 °F 19.4 °F 74% 30.21 in 7.0 mi NNW 21.9 mph 26.5 mph N/A   Clear
9:55 AM 26.6 °F 12.4 °F 19.4 °F 74% 30.21 in 7.0 mi NNW 21.9 mph 25.3 mph N/A   Clear
10:15 AM 26.6 °F 12.4 °F 19.4 °F 74% 30.23 in 7.0 mi NNW 21.9 mph - N/A   Clear
10:35 AM 28.4 °F 15.1 °F 19.4 °F 69% 30.23 in 10.0 mi NNW 20.7 mph 27.6 mph N/A   Clear
10:55 AM 30.2 °F 17.4 °F 19.4 °F 64% 30.24 in 10.0 mi NNW 20.7 mph - N/A   Clear
11:15 AM 30.2 °F 18.1 °F 19.4 °F 64% 30.24 in 10.0 mi NNW 18.4 mph - N/A   Clear
11:35 AM 32.0 °F 21.2 °F 19.4 °F 60% 30.24 in 10.0 mi NNW 16.1 mph 21.9 mph N/A   Clear
11:55 AM 32.0 °F 20.8 °F 19.4 °F 60% 30.23 in 10.0 mi North 17.3 mph 20.7 mph N/A   Clear
12:15 PM 33.8 °F 23.5 °F 19.4 °F 56% 30.23 in 10.0 mi NNW 16.1 mph - N/A   Clear
12:35 PM 35.6 °F 26.6 °F 19.4 °F 52% 30.22 in 10.0 mi NNW 13.8 mph 19.6 mph N/A   Clear
12:55 PM 35.6 °F 25.9 °F 21.2 °F 56% 30.21 in 10.0 mi North 16.1 mph 20.7 mph N/A   Clear
1:15 PM 39.2 °F 30.8 °F 21.2 °F 49% 30.21 in 10.0 mi NNW 15.0 mph 20.7 mph N/A   Clear
1:35 PM 41.0 °F 33.5 °F 23.0 °F 49% 30.20 in 10.0 mi NNW 13.8 mph 17.3 mph N/A   Clear
1:55 PM 41.0 °F 32.8 °F 23.0 °F 49% 30.19 in 10.0 mi NNW 16.1 mph - N/A   Clear
2:15 PM 42.8 °F 35.8 °F 24.8 °F 49% 30.19 in 10.0 mi NNW 13.8 mph - N/A   Clear
2:35 PM 42.8 °F 35.8 °F 24.8 °F 49% 30.19 in 10.0 mi NW 13.8 mph - N/A   Clear
2:55 PM 42.8 °F 36.6 °F 24.8 °F 49% 30.19 in 10.0 mi NNW 11.5 mph 18.4 mph N/A   Clear
3:15 PM 44.6 °F 37.4 °F 26.6 °F 49% 30.20 in 10.0 mi NW 16.1 mph - N/A   Clear
3:35 PM 44.6 °F 39.2 °F 26.6 °F 49% 30.20 in 10.0 mi NNW 10.4 mph - N/A   Clear
3:55 PM 44.6 °F 38.8 °F 26.6 °F 49% 30.20 in 10.0 mi NNW 11.5 mph - N/A   Clear
4:15 PM 44.6 °F 38.8 °F 26.6 °F 49% 30.21 in 10.0 mi NNW 11.5 mph - N/A   Clear
4:35 PM 42.8 °F 38.0 °F 26.6 °F 53% 30.21 in 10.0 mi NNW 8.1 mph - N/A   Clear
4:55 PM 41.0 °F 39.0 °F 26.6 °F 57% 30.21 in 10.0 mi NNW 3.5 mph - N/A   Clear
5:15 PM 41.0 °F - 26.6 °F 57% 30.21 in 10.0 mi Calm Calm - N/A   Clear
5:35 PM 37.4 °F - 26.6 °F 65% 30.21 in 10.0 mi Calm Calm - N/A   Clear
5:55 PM 35.6 °F - 26.6 °F 70% 30.21 in 10.0 mi Calm Calm - N/A   Clear
6:15 PM 35.6 °F 30.7 °F 28.4 °F 75% 30.21 in 5.0 mi NW 5.8 mph - N/A   Haze
6:35 PM 32.0 °F 27.5 °F 24.8 °F 75% 30.21 in 5.0 mi WNW 4.6 mph - N/A   Haze
6:55 PM 30.2 °F 24.3 °F 24.8 °F 80% 30.21 in 10.0 mi WNW 5.8 mph - N/A   Clear
7:15 PM 32.0 °F 24.8 °F 23.0 °F 69% 30.21 in 10.0 mi WNW 8.1 mph - N/A   Clear
7:35 PM 30.2 °F 22.6 °F 23.0 °F 75% 30.22 in 10.0 mi West 8.1 mph - N/A   Clear
7:55 PM 30.2 °F 21.9 °F 23.0 °F 75% 30.22 in 10.0 mi WNW 9.2 mph - N/A   Clear
8:15 PM 30.2 °F 25.4 °F 23.0 °F 75% 30.22 in 10.0 mi WNW 4.6 mph - N/A   Clear
8:35 PM 30.2 °F 24.3 °F 23.0 °F 75% 30.22 in 10.0 mi WNW 5.8 mph - N/A   Clear
8:55 PM 28.4 °F 23.3 °F 23.0 °F 80% 30.22 in 10.0 mi West 4.6 mph - N/A   Clear
9:15 PM 30.2 °F 24.3 °F 23.0 °F 75% 30.23 in 10.0 mi WNW 5.8 mph - N/A   Clear
9:35 PM 26.6 °F 21.2 °F 21.2 °F 80% 30.22 in 10.0 mi West 4.6 mph - N/A   Clear
9:55 PM 26.6 °F 21.2 °F 21.2 °F 80% 30.22 in 10.0 mi West 4.6 mph - N/A   Clear
10:15 PM 23.0 °F 17.0 °F 21.2 °F 93% 30.22 in 10.0 mi West 4.6 mph - N/A   Clear
10:35 PM 23.0 °F 14.7 °F 19.4 °F 86% 30.22 in 10.0 mi West 6.9 mph - N/A   Clear
10:55 PM 24.8 °F 19.1 °F 21.2 °F 86% 30.21 in 10.0 mi West 4.6 mph - N/A   Clear
11:15 PM 23.0 °F 14.7 °F 19.4 °F 86% 30.22 in 10.0 mi West 6.9 mph - N/A   Clear
11:35 PM 23.0 °F 17.0 °F 21.2 °F 93% 30.21 in 10.0 mi West 4.6 mph - N/A   Clear
11:55 PM 23.0 °F 15.8 °F 19.4 °F 86% 30.22 in 10.0 mi SW 5.8 mph - N/A   Clear